TimeCDT,TemperatureF,Dew PointF,Humidity,Sea Level PressureIn,VisibilityMPH,Wind Direction,Wind SpeedMPH,Gust SpeedMPH,PrecipitationIn,Events,Conditions,WindDirDegrees,DateUTC
12:53 AM,69.1,50.0,51,29.75,10.0,South,15.0,-,N/A,,Clear,180,2013-05-15 05:53:00
1:53 AM,69.1,50.0,51,29.75,10.0,South,12.7,-,N/A,,Clear,190,2013-05-15 06:53:00
2:53 AM,69.1,51.1,53,29.74,10.0,South,13.8,-,N/A,,Clear,180,2013-05-15 07:53:00
3:53 AM,68.0,53.1,59,29.75,10.0,SSW,12.7,-,N/A,,Clear,210,2013-05-15 08:53:00
4:53 AM,64.9,53.1,65,29.73,10.0,South,11.5,-,N/A,,Clear,190,2013-05-15 09:53:00
5:53 AM,63.0,53.1,70,29.73,10.0,South,12.7,-,N/A,,Clear,180,2013-05-15 10:53:00
6:53 AM,62.1,53.1,72,29.75,10.0,South,12.7,-,N/A,,Clear,190,2013-05-15 11:53:00
7:53 AM,64.9,54.0,68,29.78,10.0,SW,8.1,-,N/A,,Clear,220,2013-05-15 12:53:00
8:53 AM,71.1,53.1,53,29.78,10.0,South,16.1,-,N/A,,Clear,190,2013-05-15 13:53:00
9:53 AM,75.0,52.0,44,29.78,10.0,SW,12.7,-,N/A,,Clear,220,2013-05-15 14:53:00
10:53 AM,78.1,53.1,42,29.76,10.0,South,10.4,-,N/A,,Clear,180,2013-05-15 15:53:00
11:53 AM,82.9,53.1,36,29.76,10.0,South,11.5,-,N/A,,Clear,170,2013-05-15 16:53:00
12:53 PM,84.0,53.1,34,29.75,10.0,Calm,Calm,-,N/A,,Clear,0,2013-05-15 17:53:00
1:53 PM,87.1,53.1,31,29.75,10.0,South,9.2,-,N/A,,Clear,170,2013-05-15 18:53:00
2:53 PM,87.1,57.0,36,29.74,10.0,SE,15.0,23.0,N/A,,Clear,130,2013-05-15 19:53:00
3:53 PM,86.0,55.9,36,29.73,10.0,SSE,17.3,27.6,N/A,,Clear,150,2013-05-15 20:53:00
4:53 PM,87.1,53.1,31,29.72,10.0,SSE,16.1,23.0,N/A,,Clear,150,2013-05-15 21:53:00
5:53 PM,86.0,52.0,31,29.71,10.0,South,18.4,24.2,N/A,,Clear,190,2013-05-15 22:53:00
6:53 PM,82.0,51.1,34,29.73,10.0,South,18.4,26.5,N/A,,Clear,170,2013-05-15 23:53:00
7:53 PM,77.0,60.1,56,29.74,10.0,SSE,18.4,-,N/A,,Clear,160,2013-05-16 00:53:00
8:53 PM,71.1,60.1,68,29.75,10.0,SSE,13.8,-,N/A,,Clear,160,2013-05-16 01:53:00
9:53 PM,66.9,57.0,70,29.77,10.0,SSE,10.4,-,N/A,,Clear,160,2013-05-16 02:53:00
10:53 PM,64.0,57.9,80,29.80,10.0,SSE,11.5,-,N/A,,Clear,160,2013-05-16 03:53:00
11:53 PM,63.0,59.0,87,29.80,10.0,SSE,11.5,-,N/A,,Clear,160,2013-05-16 04:53:00